Date,TemperatureHighF,TemperatureAvgF,TemperatureLowF,DewpointHighF,DewpointAvgF,DewpointLowF,HumidityHigh,HumidityAvg,HumidityLow,PressureMaxIn,PressureMinIn,WindSpeedMaxMPH,WindSpeedAvgMPH,GustSpeedMaxMPH,PrecipitationSumIn
2013-1-1,28,22,10,20,11,-3,75,61,52,29.06,28.83,0,-999,0,0.00
2013-1-2,22,11,0,10,-1,-12,67,58,48,29.24,29.03,0,-999,0,0.00
2013-1-3,21,6,-4,4,-6,-14,64,56,45,29.25,29.13,0,-999,0,0.00
2013-1-4,33,21,5,21,11,-6,71,64,58,29.12,28.93,0,-999,0,0.00
2013-1-5,32,26,15,20,15,6,73,62,49,29.41,28.95,0,-999,0,0.00
2013-1-6,38,25,14,25,16,5,73,69,59,29.37,29.08,0,-999,0,0.00
2013-1-7,30,24,11,22,14,2,79,66,49,29.54,29.11,0,-999,0,0.00
2013-1-8,39,24,9,25,14,1,77,67,54,29.52,29.39,0,-999,0,0.00
2013-1-9,41,29,17,28,20,10,76,69,58,29.56,29.12,0,-999,0,0.00
2013-1-10,40,35,26,27,22,16,69,60,53,29.69,29.14,0,-999,0,0.00
2013-1-11,39,29,19,27,20,12,78,69,54,29.68,29.40,0,-999,0,0.00
2013-1-12,42,36,33,36,31,27,83,80,77,29.40,29.29,0,-999,0,0.00
2013-1-13,43,39,34,38,34,30,86,84,80,29.32,29.14,0,-999,0,0.00
2013-1-14,53,41,33,46,34,23,88,76,53,29.40,29.03,0,-999,0,0.00
2013-1-15,38,31,25,26,21,18,77,66,54,29.48,29.39,0,-999,0,0.00
2013-1-16,33,29,27,26,22,19,80,76,70,29.42,28.97,0,-999,0,0.00
2013-1-17,40,28,19,30,19,6,83,70,56,29.27,28.97,0,-999,0,0.00
2013-1-18,19,12,6,6,-4,-11,59,47,39,29.54,29.22,0,-999,0,0.00
2013-1-19,43,29,11,24,16,0,64,57,47,29.49,29.02,0,-999,0,0.00
2013-1-20,45,33,21,29,19,2,75,57,40,29.06,28.68,0,-999,0,0.00
2013-1-21,27,19,11,9,2,-4,67,49,40,29.21,28.98,0,-999,0,0.00
2013-1-22,22,14,3,10,3,-7,71,60,39,29.19,28.92,0,-999,0,0.00
2013-1-23,5,0,-4,-7,-13,-18,65,53,41,29.26,29.16,0,-999,0,0.00
2013-1-24,13,1,-7,-8,-15,-20,52,46,36,29.23,29.16,0,-999,0,0.00
2013-2-2,27,22,10,9,7,0,62,52,44,29.35,29.18,0,-999,0,0.00
2013-2-3,30,23,15,15,11,7,70,61,53,29.19,28.87,0,-999,0,0.00
2013-2-4,27,20,14,11,6,-3,70,54,39,29.04,28.85,0,-999,0,0.00
2013-2-5,27,17,7,8,2,-4,60,52,43,29.17,29.04,0,-999,0,0.00
2013-2-6,34,24,15,21,11,-4,71,59,41,29.43,29.09,0,-999,0,0.00
2013-2-7,23,16,9,2,-3,-7,49,42,32,29.67,29.43,0,-999,0,0.00
2013-2-8,20,15,12,10,5,0,78,64,47,29.65,28.96,0,-999,0,0.00
2013-2-9,21,15,10,15,8,0,81,73,62,29.31,28.87,0,-999,0,0.00
2013-2-10,37,19,6,13,3,-5,61,50,35,29.53,29.32,0,-999,0,0.00
2013-2-11,33,23,9,27,15,-2,79,70,57,29.50,28.79,0,-999,0,0.00
2013-2-12,43,34,29,29,26,22,82,70,53,29.00,28.76,0,-999,0,0.00
2013-2-13,42,31,24,23,19,15,70,61,47,29.02,28.91,0,-999,0,0.00
2013-2-14,39,29,21,23,18,13,72,62,48,29.15,28.89,0,-999,0,0.00
2013-2-15,49,32,18,31,20,11,74,63,46,29.15,29.06,0,-999,0,0.00
2013-2-16,43,32,25,27,20,10,77,61,46,29.13,28.93,0,-999,0,0.00
2013-2-17,25,18,11,11,5,-2,72,58,48,28.93,28.52,0,-999,0,0.00
2013-2-18,26,16,7,3,-2,-5,59,45,31,29.25,28.77,0,-999,0,0.00
2013-2-19,46,28,14,29,12,-5,77,52,35,29.30,28.74,0,-999,0,0.00
2013-2-20,34,29,20,28,19,9,81,67,53,28.89,28.68,0,-999,0,0.00
2013-2-21,26,20,16,11,8,5,68,59,48,29.34,28.89,0,-999,0,0.00
2013-2-22,43,27,12,22,15,5,74,61,42,29.56,29.34,0,-999,0,0.00
2013-2-23,40,32,26,28,23,17,78,71,62,29.50,29.14,0,-999,0,0.00
2013-2-24,34,31,28,28,25,23,82,79,76,29.15,28.93,0,-999,0,0.00
2013-2-25,47,29,23,35,23,17,81,78,61,29.40,29.07,0,-999,0,0.00
2013-2-26,46,34,29,34,27,24,82,74,60,29.51,29.37,0,-999,0,0.00
2013-2-27,37,32,29,31,27,24,83,80,75,29.37,28.81,0,-999,0,0.00
2013-2-28,51,37,29,38,29,25,83,75,59,28.82,28.72,0,-999,0,0.00
2013-3-1,41,34,29,30,26,23,82,74,62,28.86,28.72,0,-999,0,0.00
2013-3-2,48,35,26,30,24,20,78,66,48,28.85,28.80,0,-999,0,0.00
2013-3-3,44,33,28,32,25,20,79,70,59,28.83,28.74,0,-999,0,0.00
2013-3-4,37,29,24,24,19,16,72,66,56,28.93,28.75,0,-999,0,0.00
2013-3-5,46,34,24,29,23,16,76,65,50,29.27,28.93,0,-999,0,0.00
2013-3-6,40,34,29,29,26,22,81,72,61,29.37,29.26,0,-999,0,0.00
2013-3-7,37,31,28,25,22,20,79,72,60,29.34,29.22,0,-999,0,0.00
2013-3-8,49,35,26,26,21,16,80,59,38,29.37,29.17,0,-999,0,0.00
2013-3-9,57,38,24,24,19,13,70,49,26,29.53,29.35,0,-999,0,0.00
2013-3-10,51,34,20,31,22,13,76,64,45,29.57,29.47,0,-999,0,0.00
2013-3-11,56,39,27,34,27,21,79,64,41,29.48,29.31,0,-999,0,0.00
2013-3-12,46,41,37,41,36,29,86,83,73,29.32,28.91,0,-999,0,0.00
2013-3-13,50,39,29,40,29,19,86,69,47,28.95,28.88,0,-999,0,0.00
2013-3-14,36,27,16,20,16,3,77,62,46,28.97,28.84,0,-999,0,0.00
2013-3-15,40,24,13,21,10,0,76,53,36,28.99,28.79,0,-999,0,0.00
2013-3-16,44,28,17,20,13,7,76,55,34,29.06,28.83,0,-999,0,0.00
2013-3-17,34,22,11,13,5,-3,67,47,32,29.47,29.05,0,-999,0,0.00
2013-3-18,45,24,6,15,5,-6,58,44,27,29.59,29.42,0,-999,0,0.00
2013-3-19,35,29,21,27,21,15,77,73,58,29.42,28.87,0,-999,0,0.00
2013-3-20,40,28,21,22,17,10,78,64,47,28.93,28.84,0,-999,0,0.00
2013-3-21,52,30,15,22,14,7,71,54,31,28.95,28.77,0,-999,0,0.00
2013-3-22,45,30,19,22,15,10,69,55,37,28.87,28.78,0,-999,0,0.00
2013-3-23,42,30,20,20,17,11,70,57,39,28.93,28.78,0,-999,0,0.00
2013-3-24,59,36,27,30,21,15,67,54,33,28.98,28.90,0,-999,0,0.00
2013-3-25,49,34,22,30,22,13,71,62,45,28.96,28.75,0,-999,0,0.00
2013-3-26,55,38,27,25,21,16,72,53,31,28.96,28.76,0,-999,0,0.00
2013-3-27,51,37,25,27,22,15,71,57,38,29.07,28.93,0,-999,0,0.00
2013-3-28,50,39,32,34,28,25,78,66,48,29.19,29.07,0,-999,0,0.00
2013-3-29,55,42,32,35,28,24,74,61,43,29.22,29.16,0,-999,0,0.00
2013-3-30,58,42,29,29,23,15,71,51,27,29.28,29.19,0,-999,0,0.00
2013-3-31,62,41,23,31,22,-100,68,50,30,29.29,28.99,0,-999,0,0.00
2013-4-1,57,41,29,40,30,11,80,66,46,28.99,28.69,0,-999,0,0.00
2013-4-2,39,30,23,17,10,7,50,45,36,29.04,28.92,0,-999,0,0.00
2013-4-3,50,32,23,15,10,8,55,41,24,29.28,29.03,0,-999,0,0.00
2013-4-4,65,39,26,26,15,9,53,38,23,29.42,29.16,0,-999,0,0.00
2013-4-5,60,42,32,28,22,17,62,46,28,29.16,28.86,0,-999,0,0.00
2013-4-6,51,32,23,18,9,5,56,39,23,29.50,29.05,0,-999,0,0.00
2013-4-7,61,39,22,32,20,8,63,48,30,29.50,29.14,0,-999,0,0.00
2013-4-8,74,48,35,39,31,27,77,56,27,29.30,29.12,0,-999,0,0.00
2013-4-9,59,47,41,44,36,29,78,67,49,29.29,29.08,0,-999,0,0.00
2013-4-10,60,48,41,47,39,33,81,72,57,29.18,29.07,0,-999,0,0.00
2013-4-11,52,43,38,41,32,23,83,66,47,29.34,29.06,0,-999,0,0.00
2013-4-12,37,33,30,27,24,19,81,70,50,29.40,29.05,0,-999,0,0.00
2013-4-13,54,40,31,38,31,26,82,71,53,29.11,28.98,0,-999,0,0.00
2013-4-14,53,41,32,35,31,24,81,67,48,29.38,29.09,0,-999,0,0.00
2013-4-15,64,43,26,39,29,20,79,60,36,29.56,29.38,0,-999,0,0.00
2013-4-16,69,48,32,46,38,25,78,67,42,29.57,29.19,0,-999,0,0.00
2013-4-17,71,52,38,47,34,23,83,52,27,29.52,29.19,0,-999,0,0.00
2013-4-18,65,46,28,37,29,20,71,52,35,29.63,29.34,0,-999,0,0.00
2013-4-19,78,61,48,58,50,32,79,67,50,29.34,28.83,0,-999,0,0.00
2013-4-20,62,50,37,56,35,19,83,60,35,29.37,28.81,0,-999,0,0.00
2013-4-21,66,41,30,27,20,15,59,43,23,29.86,29.38,0,-999,0,0.00
2013-4-22,61,41,27,31,22,15,69,50,29,29.94,29.80,0,-999,0,0.00
2013-4-23,39,35,28,33,28,20,82,76,70,29.80,29.37,0,-999,0,0.00
2013-4-24,84,55,38,55,43,33,84,67,36,29.41,28.97,0,-999,0,0.00
2013-4-25,73,53,37,44,34,22,79,50,25,29.47,28.97,0,-999,0,0.00
2013-4-26,69,46,29,37,28,20,74,51,30,29.61,29.47,0,-999,0,0.00
2013-4-27,72,50,31,40,32,23,74,52,28,29.61,29.47,0,-999,0,0.00
2013-4-28,78,53,33,44,33,-100,74,50,28,29.52,29.42,0,-999,0,0.00
2013-4-29,79,55,36,46,36,27,70,52,30,29.45,29.36,0,-999,0,0.00
2013-4-30,83,59,41,42,34,24,62,42,22,29.57,29.44,0,-999,0,0.00
2013-5-1,87,57,34,44,32,22,64,42,21,29.65,29.56,0,-999,0,0.01
2013-5-2,80,53,38,45,34,28,68,50,28,29.69,29.56,0,-999,0,0.00
2013-5-3,84,53,34,50,36,26,76,56,31,29.72,29.58,0,-999,0,0.00
2013-5-4,78,53,37,45,36,26,79,56,30,29.58,29.47,0,-999,0,0.00
2013-5-5,78,51,30,44,34,23,77,55,29,29.54,29.42,0,-999,0,0.00
2013-5-6,82,54,32,49,37,25,77,56,26,29.46,29.33,0,-999,0,0.00
2013-5-7,87,62,39,55,44,33,79,58,26,29.37,29.28,0,-999,0,0.00
2013-5-8,80,62,49,59,52,43,81,70,47,29.42,29.29,0,-999,0,0.00
2013-5-9,70,59,54,58,52,49,83,78,64,29.28,29.11,0,-992,0,0.00
2013-5-10,86,65,54,60,53,49,85,68,41,29.15,29.10,0,-999,0,0.00
2013-5-11,67,59,54,59,53,48,83,80,74,29.11,28.90,0,-999,0,0.00
2013-5-12,72,60,49,54,46,32,86,61,45,28.93,28.78,0,-999,0,0.00
2013-5-13,61,48,37,35,29,26,66,50,36,29.23,28.98,0,-999,0,0.00
2013-5-14,64,47,35,34,29,26,73,52,31,29.23,29.15,0,-999,0,0.00
2013-5-15,71,46,31,42,33,23,75,62,31,29.23,28.90,0,-999,0,0.00
2013-5-16,81,64,45,51,28,-100,82,49,28,29.02,28.82,0,-999,0,0.00
2013-5-17,69,55,45,43,35,-100,66,53,35,29.41,29.02,0,-999,0,0.00
2013-5-18,75,55,40,48,40,32,76,58,31,29.50,29.41,0,-999,0,0.00
2013-5-19,72,54,47,53,44,40,78,70,51,29.55,29.42,0,-999,0,0.00
2013-5-20,74,58,50,59,50,45,82,75,60,29.42,29.16,0,-999,0,0.00
2013-5-21,57,55,49,52,50,43,83,82,80,29.21,29.15,0,-999,0,0.00
2013-5-23,68,65,63,63,60,59,87,86,84,29.03,28.99,0,-999,0,0.08
2013-5-24,72,61,49,64,55,44,88,81,68,29.05,28.85,0,-999,0,0.08
2013-5-25,49,46,36,44,41,31,86,84,82,29.05,28.91,0,-999,0,0.00
2013-5-26,58,46,35,42,36,31,85,71,53,29.23,28.87,0,-999,0,0.00
2013-5-27,72,53,35,44,36,29,81,57,33,29.39,29.23,0,-999,0,0.00
2013-5-28,78,57,37,48,39,30,77,55,33,29.45,29.37,0,-999,0,0.00
2013-5-29,59,54,48,53,48,38,84,78,66,29.38,29.21,0,-999,0,0.00
2013-5-30,89,70,56,66,59,51,86,69,44,29.27,29.21,0,-999,0,0.00
2013-5-31,95,75,59,69,61,54,84,64,39,29.30,29.14,0,-999,0,0.00
2013-6-1,97,76,62,70,62,56,81,65,35,29.19,29.06,0,-999,0,0.00
2013-6-2,90,70,65,71,60,-100,83,77,53,29.07,28.98,0,-999,0,0.00
2013-6-7,54,53,49,47,46,44,85,77,71,29.32,29.11,0,-999,0,0.00
2013-6-8,62,53,49,54,48,45,86,84,75,29.11,28.88,0,-999,0,0.00
2013-6-10,66,58,50,56,50,44,81,76,68,29.41,29.28,0,-999,0,0.00
2013-6-11,62,56,52,53,50,47,85,80,71,29.24,28.80,0,-999,0,0.00
2013-6-12,64,58,53,54,50,48,85,77,64,29.02,28.77,0,-999,0,0.00
2013-6-13,70,61,48,53,51,43,83,70,55,29.02,28.93,0,-999,0,0.00
2013-6-14,81,61,51,57,50,46,84,69,38,28.98,28.90,0,-999,0,0.00
2013-6-15,73,57,49,50,46,43,79,70,43,29.12,28.98,0,-999,0,0.00
2013-6-16,77,63,48,56,50,41,79,65,46,29.14,28.95,0,-999,0,0.00
2013-6-17,72,59,53,60,52,48,83,78,66,29.04,29.01,0,-999,0,0.00
2013-6-18,59,57,54,52,51,49,83,80,78,29.15,29.13,0,-999,0,0.00
2013-6-19,75,58,49,53,47,41,85,68,40,29.35,29.13,0,-999,0,0.00
2013-7-3,88,76,60,73,67,56,88,75,61,29.41,29.32,0,-999,0,0.00
2013-7-4,95,80,66,75,69,62,87,72,51,29.41,29.28,0,-999,0,0.00
2013-7-5,94,76,68,75,68,63,85,77,54,29.37,29.31,0,-999,0,0.00
2013-7-7,92,80,71,70,67,65,82,66,49,29.23,29.14,0,-999,0,0.00
2013-7-8,80,71,62,70,64,56,86,80,70,29.29,29.14,0,-999,0,0.00
2013-7-9,75,66,61,66,60,56,86,82,72,29.33,29.28,0,-999,0,0.00
2013-7-10,74,68,62,67,62,57,87,84,77,29.31,29.01,0,-999,0,0.00
2013-7-11,82,73,66,72,67,61,89,84,71,29.18,28.98,0,-999,0,0.00
2013-7-12,86,67,59,65,58,54,85,73,49,29.43,29.17,0,-999,0,0.00
2013-7-13,83,69,56,65,59,50,84,71,54,29.54,29.44,0,-999,0,0.00
2013-7-14,89,75,64,71,65,59,85,73,55,29.52,29.42,0,-999,0,0.00
2013-7-15,94,74,64,72,64,59,85,73,46,29.43,29.32,0,-999,0,0.00
2013-7-16,93,76,63,72,64,57,83,69,46,29.39,29.34,0,-999,0,0.00
2013-7-17,96,77,66,73,66,61,85,71,48,29.40,29.21,0,-999,0,0.00
2013-7-18,94,76,67,72,66,62,84,73,48,29.24,29.18,0,-999,0,0.00
2013-7-19,95,79,67,76,69,62,86,72,50,29.17,28.92,0,-999,0,0.00
2013-7-20,90,76,66,71,65,59,79,68,52,29.03,28.88,0,-999,0,0.00
2013-7-21,80,69,61,64,60,56,84,74,57,29.22,29.03,0,-999,0,0.00
2013-7-22,77,65,59,67,59,54,86,82,69,29.26,29.15,0,-999,0,0.00
2013-7-23,73,65,61,66,60,57,87,84,76,29.14,28.78,0,-999,0,0.00
2013-7-24,82,70,56,69,60,45,87,73,57,29.20,28.82,0,-999,0,0.00
2013-7-25,74,60,50,57,50,44,80,71,55,29.32,29.19,0,-999,0,0.00
2013-7-26,72,63,59,61,57,53,85,81,66,29.31,29.16,0,-999,0,0.00
2013-8-3,81,68,59,59,54,50,73,60,48,29.05,28.98,0,-999,0,0.00
2013-8-4,77,63,52,59,52,46,82,68,50,29.10,29.01,0,-999,0,0.00
2013-8-5,74,60,51,49,45,39,81,61,37,29.26,29.09,0,-999,0,0.00
2013-8-6,77,53,46,54,43,39,78,71,44,29.34,29.26,0,-999,0,0.00
2013-8-7,72,65,61,55,53,51,71,64,55,29.33,29.31,0,-999,0,0.00
2013-8-8,83,69,60,68,60,51,82,73,60,29.32,29.21,0,-999,0,0.00
2013-8-9,74,70,65,69,65,61,87,84,82,29.23,28.96,0,-999,0,0.00
2013-8-10,81,69,57,64,56,48,87,66,42,29.23,29.00,0,-999,0,0.00
2013-8-11,79,63,50,57,50,44,82,66,44,29.28,29.21,0,-999,0,0.00
2013-8-12,81,64,54,59,53,48,81,69,46,29.24,29.13,0,-999,0,0.00
2013-8-13,73,64,56,63,58,51,84,79,69,29.14,28.91,0,-999,0,0.00
2013-8-14,75,64,54,58,53,46,86,70,48,29.14,28.88,0,-999,0,0.00
2013-8-15,75,59,47,55,46,-100,81,69,47,29.31,29.14,0,-999,0,0.00
2013-8-16,79,62,50,57,50,44,82,68,45,29.40,29.30,0,-999,0,0.00
2013-8-17,82,64,51,59,52,46,83,68,42,29.49,29.40,0,-999,0,0.00
2013-8-18,79,65,54,63,55,48,82,72,55,29.49,29.29,0,-999,0,0.00
2013-8-19,82,66,54,63,53,-100,84,71,50,29.29,29.15,0,-999,0,0.00
2013-8-20,87,70,56,65,58,51,83,67,46,29.28,29.19,0,-999,0,0.00
2013-8-21,82,67,58,63,58,53,83,73,51,29.33,29.24,0,-999,0,0.00
2013-8-22,88,73,60,67,61,54,82,68,45,29.24,29.03,0,-999,0,0.00
2013-8-23,79,68,54,61,54,44,80,63,41,29.35,29.03,0,-999,0,0.00
2013-8-24,79,61,47,52,46,40,79,61,37,29.53,29.35,0,-999,0,0.00
2013-8-25,82,63,47,59,50,41,82,65,42,29.57,29.39,0,-999,0,0.00
2013-8-26,76,67,59,65,60,54,84,78,68,29.29,29.10,0,-999,0,0.00
2013-8-27,86,71,63,67,62,58,85,75,50,29.12,29.06,0,-999,0,0.00
2013-8-28,86,74,63,67,62,57,82,67,54,29.23,29.08,0,-999,0,0.00
2013-8-29,66,62,60,59,57,54,87,82,76,29.31,29.18,0,-999,0,0.00
2013-8-30,82,67,58,67,60,53,86,77,58,29.24,29.03,0,-999,0,0.00
2013-8-31,80,72,65,70,65,59,85,79,70,29.05,28.98,0,-999,0,0.00
2013-9-1,85,73,65,72,66,61,87,79,61,29.11,29.00,0,-999,0,0.00
2013-9-2,71,69,67,66,64,63,88,86,84,29.09,28.96,0,-999,0,0.00
2013-9-3,80,69,61,68,62,56,88,80,64,29.00,28.93,0,-999,0,0.00
2013-9-4,78,66,54,59,55,50,87,68,49,29.10,29.03,0,-999,0,0.00
2013-9-5,69,60,56,55,51,46,84,73,45,29.19,29.08,0,-999,0,0.00
2013-9-6,62,48,40,45,40,34,81,72,53,29.43,29.27,0,-999,0,0.00
2013-9-7,60,49,46,50,42,40,80,77,70,29.27,29.20,0,-999,0,0.00
2013-9-8,60,56,50,43,41,38,65,57,51,29.24,29.10,0,-999,0,0.00
2013-9-9,69,56,39,48,43,33,80,63,44,29.42,29.32,0,-999,0,0.00
2013-9-10,70,59,49,64,53,42,86,81,73,29.33,29.23,0,-999,0,0.00
2013-9-11,90,76,66,74,68,62,88,76,56,29.26,29.14,0,-999,0,0.00
2013-9-12,80,69,64,70,63,59,87,84,72,29.18,28.91,14,-988,14,0.00
2013-9-13,74,66,62,66,60,56,88,84,71,28.91,28.80,14,-972,14,0.00
2013-9-14,68,58,54,54,51,49,84,77,61,29.10,29.00,0,-999,0,0.00
2013-9-15,55,49,42,48,43,38,84,81,75,29.33,29.23,0,-999,0,0.00
2013-9-16,56,50,40,51,43,32,83,77,64,29.46,29.20,0,-999,0,0.00
2013-9-17,59,41,34,42,34,28,81,75,53,29.56,29.46,0,-999,0,0.00
2013-9-18,49,40,39,37,35,34,82,81,79,29.52,29.33,0,-999,0,0.00
2013-9-19,49,45,43,42,40,38,82,80,77,29.33,29.30,0,-999,0,0.00
2013-9-20,77,65,46,59,52,41,84,67,49,29.31,29.22,0,-999,0,0.00
2013-9-21,66,59,46,58,52,41,83,78,70,29.18,28.94,0,-999,0,0.00
2013-9-22,64,61,52,59,54,43,85,79,59,28.98,28.81,0,-999,0,0.00
2013-9-23,45,44,40,38,36,33,76,74,72,29.18,29.03,0,-999,0,0.00
2013-9-24,50,43,39,40,36,32,81,75,68,29.17,29.10,0,-999,0,0.00
2013-9-25,52,44,41,44,37,35,81,78,72,29.18,29.07,0,-999,0,0.00
2013-9-26,65,50,41,48,41,36,83,73,54,29.25,29.21,0,-999,0,0.00
2013-9-29,44,43,43,39,38,38,83,83,83,29.43,29.42,0,-999,0,0.00
2013-9-30,41,40,40,36,35,35,82,82,81,29.31,29.30,0,-999,0,0.02
2013-10-1,56,54,53,49,48,47,80,78,76,29.10,29.09,0,-999,0,0.00
2013-10-2,75,55,49,59,48,44,83,77,58,29.11,29.05,0,-999,0,0.00
2013-10-3,53,53,53,47,47,47,80,80,80,29.19,29.18,0,-999,0,0.00
2013-10-4,58,48,44,52,43,39,82,82,81,29.29,29.27,0,-999,0,0.00
2013-10-5,65,61,56,50,50,50,80,68,58,29.29,29.28,0,-999,0,0.00
2013-10-6,52,50,48,44,42,39,82,74,65,29.46,29.41,0,-999,0,0.00
2013-10-7,69,60,51,64,55,47,87,86,84,29.30,28.98,0,-999,0,0.00
2013-10-8,60,50,38,52,41,31,86,71,48,29.58,29.09,0,-999,0,0.00
2013-10-9,61,45,33,43,36,28,84,71,50,29.67,29.57,0,-999,0,0.00
2013-10-10,63,48,35,47,39,30,84,73,52,29.57,29.38,0,-999,0,0.00
2013-10-11,70,53,41,51,43,36,84,72,48,29.39,29.33,0,-999,0,0.00
2013-10-12,53,49,42,49,44,37,86,82,79,29.61,29.38,0,-999,0,0.00
2013-10-13,57,47,37,48,40,33,85,78,65,29.65,29.59,0,-999,0,0.00
2013-10-14,63,49,35,48,40,30,85,73,55,29.60,29.43,0,-999,0,0.00
2013-10-15,65,55,47,52,46,40,81,74,62,29.47,29.39,0,-999,0,0.00
2013-10-16,64,53,46,50,45,40,84,76,58,29.40,29.12,0,-999,0,0.00
2013-10-17,61,49,45,54,43,40,84,78,61,29.11,28.91,0,-999,0,0.00
2013-10-18,62,54,50,52,47,40,86,76,58,29.03,28.80,0,-999,0,0.00
2013-10-19,63,52,37,46,40,30,79,66,53,29.15,29.00,0,-999,0,0.00
2013-10-20,57,49,39,42,36,29,83,63,47,29.19,28.88,0,-999,0,0.00
2013-10-21,62,46,32,43,35,26,81,67,49,29.29,29.19,0,-999,0,0.00
2013-10-22,57,50,42,47,42,36,82,75,70,29.15,28.91,0,-999,0,0.00
2013-10-23,52,39,33,38,31,28,82,75,56,28.98,28.84,0,-999,0,0.00
2013-10-24,48,42,33,31,29,26,75,60,50,29.05,28.86,0,-999,0,0.00
2013-10-25,46,38,28,33,26,20,80,61,49,29.30,29.05,0,-999,0,0.00
2013-10-26,49,37,26,35,26,19,78,66,52,29.31,29.06,0,-999,0,0.00
2013-10-27,51,43,33,35,31,23,69,62,52,29.21,28.98,0,-999,0,0.00
2013-10-28,50,38,29,35,26,18,76,63,50,29.52,29.23,0,-999,0,0.00
2013-10-29,46,32,22,27,19,15,75,60,42,29.62,29.52,0,-999,0,0.00
2013-10-30,47,35,26,34,25,16,75,67,58,29.53,29.37,0,-999,0,0.00
2013-10-31,56,40,30,52,35,23,87,81,76,29.42,28.96,0,-999,0,0.00
2013-11-1,58,56,52,53,50,46,88,84,75,28.96,28.65,0,-999,0,0.00
2013-11-2,61,49,39,45,40,34,84,72,53,28.93,28.80,0,-999,0,0.00
2013-11-3,44,37,26,39,26,16,82,66,46,29.59,28.93,0,-999,0,0.00
2013-11-4,39,28,21,20,16,14,76,61,43,29.87,29.59,0,-999,0,0.00
2013-11-5,45,32,23,30,22,15,75,67,52,29.87,29.67,0,-999,0,0.00
2013-11-6,54,42,32,43,34,25,79,73,64,29.67,29.18,0,-999,0,0.00
2013-11-7,56,48,36,51,42,29,84,79,72,29.19,28.87,0,-999,0,0.00
2013-11-8,43,35,29,29,25,21,74,66,55,29.21,28.98,0,-999,0,0.00
2013-11-9,39,35,31,26,22,19,66,58,50,29.34,29.20,0,-999,0,0.00
2013-11-10,43,36,33,37,30,25,82,77,66,29.20,28.93,0,-999,0,0.00
2013-11-11,46,38,34,32,28,24,81,66,51,29.21,29.00,0,-999,0,0.00
2013-11-12,39,31,26,29,19,13,70,61,56,29.32,29.03,0,-999,0,0.00
2013-11-13,31,27,24,15,13,11,65,57,46,29.43,29.28,0,-999,0,0.00
2013-11-14,42,31,27,26,19,14,69,62,52,29.28,29.19,0,-999,0,0.00
2013-11-15,51,31,29,28,20,18,70,64,40,29.37,29.27,0,-999,0,0.00
2013-11-16,53,38,31,32,26,20,69,62,39,29.50,29.35,0,-999,0,0.00
2013-11-17,49,39,30,45,33,22,86,79,69,29.50,29.08,0,-999,0,0.00
2013-11-18,54,51,46,50,46,36,87,83,67,29.07,28.71,0,-999,0,0.00
2013-11-19,42,36,30,30,22,16,63,56,50,29.34,28.83,0,-999,0,0.00
2013-11-20,37,33,29,18,16,13,59,48,43,29.74,29.57,0,-999,0,0.00
2013-11-21,39,35,34,22,20,18,60,53,44,29.62,29.52,0,-999,0,0.00
2013-11-22,40,38,34,34,30,22,82,74,61,29.52,28.99,0,-999,0,0.00
2013-11-23,39,36,32,35,28,21,84,75,59,29.04,28.92,0,-999,0,0.00
2013-11-26,38,38,38,27,27,27,65,65,64,29.45,29.43,0,-999,0,0.00
2013-12-31,13,8,6,3,0,-1,74,69,63,29.27,29.20,0,-999,0,0.00
2014-1-1,24,14,6,11,5,0,76,68,55,29.52,29.28,0,-999,0,0.00
2014-1-2,13,7,-3,5,-2,-10,72,69,63,29.52,29.08,0,-999,0,0.00